Regional Weather Roundup
Issued by NWS

Home | Current Version | Previous Version | Graphics & Text | Print | Product List | Glossary On
Versions: 1 2 3 4 5 6 7 8 9 10 11 12 13 14 15 16 17 18 19 20 21 22 23 24 25 26 27 28 29 30 31 32 33 34 35 36 37 38 39 40 41 42 43 44 45 46 47 48 49 50
000
ASUS44 KMEG 191510
RWRTN
TENNESSEE HOURLY STATE WEATHER ROUNDUP
NATIONAL WEATHER SERVICE MEMPHIS TN
1000 AM CDT FRI SEP 19 2014

TNZ002-004-019-021-049-052-054-088>092-191600-
WEST TENNESSEE

CITY           SKY/WX    TMP DP  RH WIND       PRES   REMARKS
MEMPHIS INTL   MOSUNNY   75  65  70 E5        30.04R
NWS MEMPHIS      N/A     72 N/A N/A MISG        N/A
JACKSON        SUNNY     72  62  71 CALM      30.06R
DYERSBURG      SUNNY     70  55  60 CALM      30.07R
UNION CITY     SUNNY     70  61  73 CALM      30.06R
PARIS          SUNNY     68  59  73 E5        30.08R
HUNTINGDON     SUNNY     69  60  73 NE5       30.07R
LEXINGTON      SUNNY     72  63  73 CALM      30.05S
SAVANNAH       SUNNY     73  68  83 E3        30.06R
$$

TNZ008-025-027-028-033-062-065-066-191600-
NORTH MIDDLE TENNESSEE

CITY           SKY/WX    TMP DP  RH WIND       PRES   REMARKS
NASHVILLE      SUNNY     72  60  66 VRB3      30.09R
DICKSON        SUNNY     68  61  77 SE3       30.08R
PORTLAND       SUNNY     70  59  68 SE5       30.08S
CLARKSVILLE    SUNNY     69  58  67 E3        30.08S
LEBANON        SUNNY     70  59  68 E5        30.07R
SMYRNA         SUNNY     72  61  68 CALM      30.09R
COOKEVILLE     SUNNY     75  63  64 E5        30.09R
GALLATIN       SUNNY     70  62  75 VRB3      30.09S
CROSSVILLE     SUNNY     71  56  58 E6        30.14R
$$

TNZ061-075-076-078-094-096-097-191600-
SOUTH MIDDLE TENNESSEE

CITY           SKY/WX    TMP DP  RH WIND       PRES   REMARKS
LEWISBURG      PTSUNNY   71  62  73 CALM      30.07R
FAYETTEVILLE   SUNNY     73  61  64 SE7       30.08R
TULLAHOMA      SUNNY     73  59  60 SE6       30.09S
WINCHESTER     SUNNY     75  61  60 SE9       30.09R
MCMINNVILLE    SUNNY     75  64  69 CALM      30.09R
SHELBYVILLE    SUNNY     77  63  61 S3        30.08S
$$

TNZ017-018-042-046-047-191600-
NORTHEAST TENNESSEE

CITY           SKY/WX    TMP DP  RH WIND       PRES   REMARKS
TRI CITIES     MOSUNNY   72  59  63 E3        30.15S
ELIZABETHTON   SUNNY     70  59  68 VRB6      30.15F
$$

TNZ012-013-036-069-073-074-191600-
CENTRAL EAST TENNESSEE

CITY           SKY/WX    TMP DP  RH WIND       PRES   REMARKS
KNOXVILLE      SUNNY     71  59  65 VRB3      30.10S
OAK RIDGE      SUNNY     70  59  68 SE3       30.13R
GATLINBURG     SUNNY     70  61  73 E3        30.11S
MORRISTOWN     SUNNY     72  61  68 CALM      30.14R
$$

TNZ083-085-099-191600-
SOUTHEAST TENNESSEE

CITY           SKY/WX    TMP DP  RH WIND       PRES   REMARKS
CHATTANOOGA    MOSUNNY   72  59  63 CALM      30.11S
$$

SKY/WX REPORTED AS FAIR MEANS FEW OR NO CLOUDS BELOW
12 THOUSAND FEET.



USA.gov is the U.S. government's official web portal to all federal, state and local government web resources and services.